Location: ????????
(55.8351°N, 38.7040°E)
Time: 11:52:33
(UTC+00:00)

SAR-Lupe-1 - Pass Details

Date: 14 April 2024
Orbit: 479 x 482 km, 98.1° (Epoch: 04 May)

Event Time Altitude Azimuth Distance (km) Brightness Sun altitude
Rises 00:21:43 0° 15° (NNE) 2,563 8.8 -15.1°
Reaches altitude 10° 00:23:48 10° 15° (NNE) 1,677 7.7 -14.9°
Maximum altitude 00:27:24 85° 289° (WNW) 493 4.0 -14.6°
Enters shadow 00:29:27 24° 200° (SSW) 1,037 5.2 -14.4°
